Time,TemperatureF,DewpointF,PressureIn,WindDirection,WindDirectionDegrees,WindSpeedMPH,WindSpeedGustMPH,Humidity,HourlyPrecipIn,Conditions,Clouds,dailyrainin,SoftwareType,DateUTC
2013-06-11 00:00:00,68.9,63.9,29.72,ENE,66,0.0,0.0,84,0.00,CLR,,0.00,WeatherDisplay:10.37,2013-06-11 05:00:00,
2013-06-11 00:05:00,68.9,63.9,29.73,ENE,66,0.0,0.0,84,0.00,CLR,,0.00,WeatherDisplay:10.37,2013-06-11 05:05:00,
2013-06-11 00:10:00,69.1,64.1,29.73,ENE,66,0.0,0.0,84,0.00,CLR,,0.00,WeatherDisplay:10.37,2013-06-11 05:10:00,
2013-06-11 00:15:00,68.7,63.6,29.73,ENE,66,0.0,0.0,84,0.00,CLR,,0.00,WeatherDisplay:10.37,2013-06-11 05:15:00,
2013-06-11 00:20:00,68.2,63.9,29.73,ENE,66,0.0,0.0,86,0.00,CLR,,0.00,WeatherDisplay:10.37,2013-06-11 05:20:00,
2013-06-11 00:25:00,67.9,63.9,29.73,ENE,66,0.0,0.0,87,0.00,CLR,,0.00,WeatherDisplay:10.37,2013-06-11 05:25:00,
2013-06-11 00:30:00,67.6,63.2,29.73,ENE,66,0.0,0.0,86,0.00,CLR,,0.00,WeatherDisplay:10.37,2013-06-11 05:30:00,
2013-06-11 00:35:00,66.8,63.2,29.73,ENE,66,0.0,0.0,88,0.00,CLR,,0.00,WeatherDisplay:10.37,2013-06-11 05:35:00,
2013-06-11 00:40:00,66.2,63.1,29.73,ENE,66,0.0,0.0,90,0.00,CLR,,0.00,WeatherDisplay:10.37,2013-06-11 05:40:00,
2013-06-11 00:45:00,65.9,62.8,29.73,ENE,66,0.0,0.0,90,0.00,CLR,,0.00,WeatherDisplay:10.37,2013-06-11 05:45:00,
2013-06-11 00:50:00,65.8,63.1,29.74,ENE,66,0.0,0.0,91,0.00,CLR,,0.00,WeatherDisplay:10.37,2013-06-11 05:50:00,
2013-06-11 01:00:00,65.3,62.6,29.74,ENE,66,0.0,0.0,91,0.00,CLR,,0.00,WeatherDisplay:10.37,2013-06-11 06:00:00,
2013-06-11 01:05:00,65.2,62.8,29.73,ENE,66,0.0,0.0,92,0.00,CLR,,0.00,WeatherDisplay:10.37,2013-06-11 06:05:00,
2013-06-11 01:10:00,65.0,62.6,29.73,ENE,66,0.0,0.0,92,0.00,CLR,,0.00,WeatherDisplay:10.37,2013-06-11 06:10:00,
2013-06-11 01:15:00,64.8,62.4,29.73,ENE,66,0.0,0.0,92,0.00,CLR,,0.00,WeatherDisplay:10.37,2013-06-11 06:15:00,
2013-06-11 01:20:00,64.5,62.4,29.73,ENE,66,0.0,0.0,93,0.00,CLR,,0.00,WeatherDisplay:10.37,2013-06-11 06:20:00,
2013-06-11 01:25:00,64.2,62.1,29.73,ENE,66,0.0,0.0,93,0.00,CLR,,0.00,WeatherDisplay:10.37,2013-06-11 06:25:00,
2013-06-11 01:30:00,64.0,61.9,29.73,ENE,66,0.0,0.0,93,0.00,CLR,,0.00,WeatherDisplay:10.37,2013-06-11 06:30:00,
2013-06-11 01:35:00,63.9,61.8,29.73,ENE,66,0.0,0.0,93,0.00,CLR,,0.00,WeatherDisplay:10.37,2013-06-11 06:35:00,
2013-06-11 01:40:00,63.7,61.6,29.73,ENE,66,0.0,0.0,93,0.00,CLR,,0.00,WeatherDisplay:10.37,2013-06-11 06:40:00,
2013-06-11 01:45:00,63.5,61.7,29.73,ENE,66,0.0,0.0,94,0.00,CLR,,0.00,WeatherDisplay:10.37,2013-06-11 06:45:00,
2013-06-11 01:50:00,63.3,61.5,29.73,ENE,66,0.0,0.0,94,0.00,CLR,,0.00,WeatherDisplay:10.37,2013-06-11 06:50:00,
2013-06-11 01:55:00,63.1,61.3,29.73,ENE,66,0.0,0.0,94,0.00,CLR,,0.00,WeatherDisplay:10.37,2013-06-11 06:55:00,
2013-06-11 02:00:00,62.9,61.1,29.73,ENE,66,0.0,0.0,94,0.00,CLR,,0.00,WeatherDisplay:10.37,2013-06-11 07:00:00,
2013-06-11 02:05:00,62.6,60.9,29.73,ENE,66,0.0,0.0,94,0.00,CLR,,0.00,WeatherDisplay:10.37,2013-06-11 07:05:00,
2013-06-11 02:10:00,62.4,60.9,29.73,ENE,66,0.0,0.0,95,0.00,CLR,,0.00,WeatherDisplay:10.37,2013-06-11 07:10:00,
2013-06-11 02:15:00,62.3,60.8,29.73,ENE,66,0.0,0.0,95,0.00,CLR,,0.00,WeatherDisplay:10.37,2013-06-11 07:15:00,
2013-06-11 02:20:00,62.1,60.7,29.74,ENE,66,0.0,0.0,95,0.00,CLR,,0.00,WeatherDisplay:10.37,2013-06-11 07:20:00,
2013-06-11 02:25:00,62.1,60.7,29.74,ENE,66,0.0,0.0,95,0.00,CLR,,0.00,WeatherDisplay:10.37,2013-06-11 07:25:00,
2013-06-11 02:30:00,62.0,60.6,29.74,ENE,66,0.0,0.0,95,0.00,CLR,,0.00,WeatherDisplay:10.37,2013-06-11 07:30:00,
2013-06-11 02:35:00,61.6,60.4,29.74,ENE,66,0.0,0.0,96,0.00,CLR,,0.00,WeatherDisplay:10.37,2013-06-11 07:35:00,
2013-06-11 02:40:00,61.3,60.2,29.74,ENE,66,0.0,0.0,96,0.00,CLR,,0.00,WeatherDisplay:10.37,2013-06-11 07:40:00,
2013-06-11 02:45:00,61.2,60.1,29.74,ENE,66,0.0,0.0,96,0.00,CLR,,0.00,WeatherDisplay:10.37,2013-06-11 07:45:00,
2013-06-11 02:55:00,61.0,60.1,29.74,ENE,66,0.0,0.0,97,0.00,CLR,,0.00,WeatherDisplay:10.37,2013-06-11 07:55:00,
2013-06-11 03:05:00,60.9,60.0,29.74,ENE,66,0.0,0.0,97,0.00,CLR,,0.00,WeatherDisplay:10.37,2013-06-11 08:05:00,
2013-06-11 03:10:00,60.9,60.0,29.74,ENE,66,0.0,0.0,97,0.00,CLR,,0.00,WeatherDisplay:10.37,2013-06-11 08:10:00,
2013-06-11 03:15:00,60.7,60.1,29.74,ENE,66,0.0,0.0,98,0.00,CLR,,0.00,WeatherDisplay:10.37,2013-06-11 08:15:00,
2013-06-11 03:20:00,60.5,59.9,29.74,ENE,66,0.0,0.0,98,0.00,CLR,,0.00,WeatherDisplay:10.37,2013-06-11 08:20:00,
2013-06-11 03:25:00,60.4,59.8,29.74,ENE,66,0.0,0.0,98,0.00,CLR,,0.00,WeatherDisplay:10.37,2013-06-11 08:25:00,
2013-06-11 03:30:00,60.4,59.8,29.74,ENE,66,0.0,0.0,98,0.00,CLR,,0.00,WeatherDisplay:10.37,2013-06-11 08:30:00,
2013-06-11 03:35:00,60.4,59.8,29.74,ENE,66,0.0,0.0,98,0.00,CLR,,0.00,WeatherDisplay:10.37,2013-06-11 08:35:00,
2013-06-11 03:40:00,60.2,59.6,29.74,ENE,66,0.0,0.0,98,0.00,CLR,,0.00,WeatherDisplay:10.37,2013-06-11 08:40:00,
2013-06-11 03:45:00,60.2,59.9,29.74,ENE,66,0.0,0.0,99,0.00,CLR,,0.00,WeatherDisplay:10.37,2013-06-11 08:45:00,
2013-06-11 03:50:00,60.1,59.8,29.75,ENE,66,0.0,0.0,99,0.00,CLR,,0.00,WeatherDisplay:10.37,2013-06-11 08:50:00,
2013-06-11 03:55:00,60.2,59.9,29.75,ENE,66,0.0,0.0,99,0.00,CLR,,0.00,WeatherDisplay:10.37,2013-06-11 08:55:00,
2013-06-11 04:00:00,60.5,60.5,29.75,ENE,66,0.0,0.0,100,0.00,CLR,,0.00,WeatherDisplay:10.37,2013-06-11 09:00:00,
2013-06-11 04:05:00,60.9,60.9,29.75,ENE,66,0.0,0.0,100,0.00,CLR,,0.00,WeatherDisplay:10.37,2013-06-11 09:05:00,
2013-06-11 04:10:00,61.2,61.2,29.75,ENE,66,0.0,0.0,100,0.00,CLR,,0.00,WeatherDisplay:10.37,2013-06-11 09:10:00,
2013-06-11 04:15:00,61.2,61.2,29.75,ENE,66,0.0,0.0,100,0.00,CLR,,0.00,WeatherDisplay:10.37,2013-06-11 09:15:00,
2013-06-11 04:20:00,61.3,61.3,29.75,ENE,66,0.0,0.0,100,0.00,CLR,,0.00,WeatherDisplay:10.37,2013-06-11 09:20:00,
2013-06-11 04:25:00,61.3,61.3,29.75,ENE,66,0.0,0.0,100,0.00,CLR,,0.00,WeatherDisplay:10.37,2013-06-11 09:25:00,
2013-06-11 04:30:00,61.3,61.3,29.75,ENE,66,0.0,0.0,100,0.00,CLR,,0.00,WeatherDisplay:10.37,2013-06-11 09:30:00,
2013-06-11 04:35:00,61.3,61.3,29.75,ENE,66,0.0,0.0,100,0.00,CLR,,0.00,WeatherDisplay:10.37,2013-06-11 09:35:00,
2013-06-11 04:40:00,61.3,61.3,29.75,ENE,66,0.0,0.0,100,0.00,CLR,,0.00,WeatherDisplay:10.37,2013-06-11 09:40:00,
2013-06-11 04:45:00,61.2,61.2,29.75,ENE,66,0.0,0.0,100,0.00,CLR,,0.00,WeatherDisplay:10.37,2013-06-11 09:45:00,
2013-06-11 04:50:00,61.2,61.2,29.75,ENE,66,0.0,0.0,100,0.00,CLR,,0.00,WeatherDisplay:10.37,2013-06-11 09:50:00,
2013-06-11 04:55:00,61.2,61.2,29.75,ENE,66,0.0,0.0,100,0.00,CLR,,0.00,WeatherDisplay:10.37,2013-06-11 09:55:00,
2013-06-11 05:00:00,61.0,61.0,29.75,ENE,66,0.0,0.0,100,0.00,CLR,,0.00,WeatherDisplay:10.37,2013-06-11 10:00:00,
2013-06-11 05:05:00,61.0,61.0,29.75,ENE,66,0.0,0.0,100,0.00,CLR,,0.00,WeatherDisplay:10.37,2013-06-11 10:05:00,
2013-06-11 05:10:00,60.9,60.9,29.75,ENE,66,0.0,0.0,100,0.00,CLR,,0.00,WeatherDisplay:10.37,2013-06-11 10:10:00,
2013-06-11 05:15:00,60.9,60.9,29.75,ENE,66,0.0,0.0,100,0.00,CLR,,0.00,WeatherDisplay:10.37,2013-06-11 10:15:00,
2013-06-11 05:20:00,60.7,60.7,29.75,ENE,66,0.0,0.0,100,0.00,CLR,,0.00,WeatherDisplay:10.37,2013-06-11 10:20:00,
2013-06-11 05:25:00,60.5,60.5,29.75,ENE,66,0.0,0.0,100,0.00,CLR,,0.00,WeatherDisplay:10.37,2013-06-11 10:25:00,
2013-06-11 05:30:00,60.4,60.4,29.75,ENE,66,0.0,0.0,100,0.00,CLR,,0.00,WeatherDisplay:10.37,2013-06-11 10:30:00,
2013-06-11 05:35:00,60.4,60.4,29.75,ENE,66,0.0,0.0,100,0.00,CLR,,0.00,WeatherDisplay:10.37,2013-06-11 10:35:00,
2013-06-11 05:40:00,60.4,60.4,29.75,ENE,66,0.0,0.0,100,0.00,CLR,,0.00,WeatherDisplay:10.37,2013-06-11 10:40:00,
2013-06-11 05:45:00,60.4,60.4,29.75,ENE,66,0.0,0.0,100,0.00,CLR,,0.00,WeatherDisplay:10.37,2013-06-11 10:45:00,
2013-06-11 05:50:00,60.2,60.2,29.75,ENE,66,0.0,0.0,100,0.00,CLR,,0.00,WeatherDisplay:10.37,2013-06-11 10:50:00,
2013-06-11 05:55:00,60.2,60.2,29.75,ENE,66,0.0,0.0,100,0.00,CLR,,0.00,WeatherDisplay:10.37,2013-06-11 10:55:00,
2013-06-11 06:00:00,60.4,60.4,29.75,ENE,66,0.0,0.0,100,0.00,CLR,,0.00,WeatherDisplay:10.37,2013-06-11 11:00:00,
2013-06-11 06:05:00,60.5,60.5,29.76,ENE,66,0.0,0.0,100,0.00,CLR,,0.00,WeatherDisplay:10.37,2013-06-11 11:05:00,
2013-06-11 06:10:00,60.5,60.5,29.76,ENE,66,0.0,0.0,100,0.00,CLR,,0.00,WeatherDisplay:10.37,2013-06-11 11:10:00,
2013-06-11 06:15:00,60.9,60.9,29.76,ENE,66,0.0,0.0,100,0.00,CLR,,0.00,WeatherDisplay:10.37,2013-06-11 11:15:00,
2013-06-11 06:20:00,61.2,61.2,29.77,ENE,66,0.0,0.0,100,0.00,CLR,,0.00,WeatherDisplay:10.37,2013-06-11 11:20:00,
2013-06-11 06:25:00,61.7,61.8,29.77,ENE,66,0.0,0.0,100,0.00,CLR,,0.00,WeatherDisplay:10.37,2013-06-11 11:25:00,
2013-06-11 06:30:00,62.4,62.4,29.77,ENE,66,0.0,0.0,100,0.00,CLR,,0.00,WeatherDisplay:10.37,2013-06-11 11:30:00,
2013-06-11 06:35:00,62.9,62.9,29.77,ENE,66,0.0,0.0,100,0.00,CLR,,0.00,WeatherDisplay:10.37,2013-06-11 11:35:00,
2013-06-11 06:45:00,63.7,63.8,29.77,ENE,66,0.0,0.0,100,0.00,CLR,,0.00,WeatherDisplay:10.37,2013-06-11 11:45:00,
2013-06-11 06:50:00,64.0,64.0,29.78,ENE,66,0.0,0.0,100,0.00,CLR,,0.00,WeatherDisplay:10.37,2013-06-11 11:50:00,
2013-06-11 06:55:00,64.3,64.3,29.78,ENE,66,0.0,0.0,100,0.00,CLR,,0.00,WeatherDisplay:10.37,2013-06-11 11:55:00,
2013-06-11 07:00:00,64.5,64.0,29.78,ENE,66,0.0,0.0,98,0.00,CLR,,0.00,WeatherDisplay:10.37,2013-06-11 12:00:00,
2013-06-11 07:05:00,64.9,63.4,29.78,ENE,66,0.0,0.0,95,0.00,CLR,,0.00,WeatherDisplay:10.37,2013-06-11 12:05:00,
2013-06-11 07:10:00,65.4,63.6,29.78,ENE,66,0.0,0.0,94,0.00,CLR,,0.00,WeatherDisplay:10.37,2013-06-11 12:10:00,
2013-06-11 07:15:00,66.0,63.0,29.78,ENE,66,0.0,0.0,90,0.00,CLR,,0.00,WeatherDisplay:10.37,2013-06-11 12:15:00,
2013-06-11 07:20:00,66.4,62.1,29.78,ENE,66,0.0,0.0,86,0.00,CLR,,0.00,WeatherDisplay:10.37,2013-06-11 12:20:00,
2013-06-11 07:25:00,66.8,62.2,29.78,ENE,66,0.0,0.0,85,0.00,CLR,,0.00,WeatherDisplay:10.37,2013-06-11 12:25:00,
2013-06-11 07:30:00,67.1,62.4,29.78,ENE,66,0.0,0.0,85,0.00,CLR,,0.00,WeatherDisplay:10.37,2013-06-11 12:30:00,
2013-06-11 07:35:00,67.3,62.7,29.78,ENE,66,0.0,0.0,85,0.00,CLR,,0.00,WeatherDisplay:10.37,2013-06-11 12:35:00,
2013-06-11 07:40:00,67.4,62.4,29.78,ENE,66,0.0,0.0,84,0.00,CLR,,0.00,WeatherDisplay:10.37,2013-06-11 12:40:00,
2013-06-11 07:45:00,67.6,62.6,29.78,ENE,66,0.0,0.0,84,0.00,CLR,,0.00,WeatherDisplay:10.37,2013-06-11 12:45:00,
2013-06-11 07:50:00,67.8,62.8,29.79,ENE,66,0.0,0.0,84,0.00,CLR,,0.00,WeatherDisplay:10.37,2013-06-11 12:50:00,
2013-06-11 07:55:00,67.6,62.3,29.79,ENE,66,0.0,0.0,83,0.00,CLR,,0.00,WeatherDisplay:10.37,2013-06-11 12:55:00,
2013-06-11 08:00:00,67.8,62.8,29.79,ENE,66,0.0,0.0,84,0.00,CLR,,0.00,WeatherDisplay:10.37,2013-06-11 13:00:00,
2013-06-11 08:05:00,68.1,62.4,29.79,ENE,66,0.0,0.0,82,0.00,CLR,,0.00,WeatherDisplay:10.37,2013-06-11 13:05:00,
2013-06-11 08:10:00,68.5,62.8,29.79,ENE,66,0.0,0.0,82,0.00,CLR,,0.00,WeatherDisplay:10.37,2013-06-11 13:10:00,
2013-06-11 08:15:00,68.8,62.7,29.79,ENE,66,0.0,0.0,81,0.00,CLR,,0.00,WeatherDisplay:10.37,2013-06-11 13:15:00,
2013-06-11 08:20:00,68.9,62.5,29.79,ENE,66,0.0,0.0,80,0.00,CLR,,0.00,WeatherDisplay:10.37,2013-06-11 13:20:00,
2013-06-11 08:25:00,69.1,63.0,29.79,ENE,66,0.0,0.0,81,0.00,CLR,,0.00,WeatherDisplay:10.37,2013-06-11 13:25:00,
2013-06-11 08:30:00,69.3,63.6,29.79,ENE,66,0.0,0.0,82,0.00,CLR,,0.00,WeatherDisplay:10.37,2013-06-11 13:30:00,
2013-06-11 08:35:00,69.6,63.2,29.80,ENE,66,0.0,1.0,80,0.00,CLR,,0.00,WeatherDisplay:10.37,2013-06-11 13:35:00,
2013-06-11 08:40:00,70.1,63.6,29.80,ENE,66,0.0,1.0,80,0.00,CLR,,0.00,WeatherDisplay:10.37,2013-06-11 13:40:00,
2013-06-11 08:45:00,70.3,63.1,29.80,ENE,66,0.0,2.0,78,0.00,CLR,,0.00,WeatherDisplay:10.37,2013-06-11 13:45:00,
2013-06-11 08:50:00,70.4,62.5,29.78,ENE,66,0.0,3.0,76,0.00,CLR,,0.00,WeatherDisplay:10.37,2013-06-11 13:50:00,
2013-06-11 08:55:00,70.6,62.7,29.78,ENE,66,0.0,3.0,76,0.00,CLR,,0.00,WeatherDisplay:10.37,2013-06-11 13:55:00,
2013-06-11 09:00:00,70.6,62.7,29.78,ENE,66,0.0,1.0,76,0.00,CLR,,0.00,WeatherDisplay:10.37,2013-06-11 14:00:00,
2013-06-11 09:05:00,70.9,63.3,29.78,ENE,66,0.0,2.0,77,0.00,CLR,,0.00,WeatherDisplay:10.37,2013-06-11 14:05:00,
2013-06-11 09:10:00,71.1,63.1,29.78,ENE,66,0.0,1.0,76,0.00,CLR,,0.00,WeatherDisplay:10.37,2013-06-11 14:10:00,
2013-06-11 09:15:00,71.5,63.6,29.78,ENE,66,0.0,2.0,76,0.00,CLR,,0.00,WeatherDisplay:10.37,2013-06-11 14:15:00,
2013-06-11 09:20:00,72.0,63.3,29.78,ENE,66,0.0,1.0,74,0.00,CLR,,0.00,WeatherDisplay:10.37,2013-06-11 14:20:00,
2013-06-11 09:25:00,72.3,63.5,29.78,ENE,66,0.0,1.0,74,0.00,CLR,,0.00,WeatherDisplay:10.37,2013-06-11 14:25:00,
2013-06-11 09:30:00,72.5,63.0,29.78,ENE,66,0.0,3.0,72,0.00,CLR,,0.00,WeatherDisplay:10.37,2013-06-11 14:30:00,
2013-06-11 09:35:00,72.8,63.6,29.77,ENE,66,0.0,3.0,73,0.00,CLR,,0.00,WeatherDisplay:10.37,2013-06-11 14:35:00,
2013-06-11 09:40:00,73.0,63.9,29.77,ENE,66,0.0,1.0,73,0.00,CLR,,0.00,WeatherDisplay:10.37,2013-06-11 14:40:00,
2013-06-11 09:45:00,73.2,62.4,29.77,ENE,66,0.0,1.0,69,0.00,CLR,,0.00,WeatherDisplay:10.37,2013-06-11 14:45:00,
2013-06-11 09:50:00,73.3,63.3,29.77,ENE,67,1.0,3.0,71,0.00,CLR,,0.00,WeatherDisplay:10.37,2013-06-11 14:50:00,
2013-06-11 10:00:00,73.5,63.5,29.77,ENE,70,0.0,1.0,71,0.00,CLR,,0.00,WeatherDisplay:10.37,2013-06-11 15:00:00,
2013-06-11 10:05:00,73.5,62.3,29.77,East,97,0.0,3.0,68,0.00,CLR,,0.00,WeatherDisplay:10.37,2013-06-11 15:05:00,
2013-06-11 10:10:00,73.9,62.7,29.77,SSW,212,0.0,1.0,68,0.00,CLR,,0.00,WeatherDisplay:10.37,2013-06-11 15:10:00,
2013-06-11 10:15:00,74.0,62.8,29.77,SSW,212,0.0,2.0,68,0.00,CLR,,0.00,WeatherDisplay:10.37,2013-06-11 15:15:00,
2013-06-11 10:20:00,74.0,62.8,29.77,SW,216,1.0,3.0,68,0.00,CLR,,0.00,WeatherDisplay:10.37,2013-06-11 15:20:00,
2013-06-11 10:25:00,74.2,62.5,29.77,SW,224,0.0,3.0,67,0.00,CLR,,0.00,WeatherDisplay:10.37,2013-06-11 15:25:00,
2013-06-11 10:30:00,74.7,62.5,29.77,SW,227,1.0,2.0,66,0.00,CLR,,0.00,WeatherDisplay:10.37,2013-06-11 15:30:00,
2013-06-11 10:35:00,74.9,62.8,29.77,WSW,249,0.0,2.0,66,0.00,CLR,,0.00,WeatherDisplay:10.37,2013-06-11 15:35:00,
2013-06-11 10:40:00,75.1,63.0,29.77,West,267,0.0,1.0,66,0.00,CLR,,0.00,WeatherDisplay:10.37,2013-06-11 15:40:00,
2013-06-11 10:45:00,74.9,62.3,29.77,West,277,0.0,1.0,65,0.00,CLR,,0.00,WeatherDisplay:10.37,2013-06-11 15:45:00,
2013-06-11 10:50:00,75.1,63.4,29.77,WNW,298,0.0,2.0,67,0.00,CLR,,0.00,WeatherDisplay:10.37,2013-06-11 15:50:00,
2013-06-11 10:55:00,75.3,63.6,29.77,WNW,282,2.0,4.0,67,0.00,CLR,,0.00,WeatherDisplay:10.37,2013-06-11 15:55:00,
2013-06-11 11:00:00,75.6,62.6,29.77,West,262,1.0,3.0,64,0.00,CLR,,0.00,WeatherDisplay:10.37,2013-06-11 16:00:00,
2013-06-11 11:05:00,76.0,62.0,29.78,West,261,0.0,3.0,62,0.00,CLR,,0.00,WeatherDisplay:10.37,2013-06-11 16:05:00,
2013-06-11 11:10:00,76.4,63.3,29.78,West,261,0.0,3.0,64,0.00,CLR,,0.00,WeatherDisplay:10.37,2013-06-11 16:10:00,
2013-06-11 11:15:00,76.8,63.2,29.78,West,261,0.0,1.0,63,0.00,CLR,,0.00,WeatherDisplay:10.37,2013-06-11 16:15:00,
2013-06-11 11:20:00,76.3,62.3,29.77,West,274,0.0,1.0,62,0.00,CLR,,0.00,WeatherDisplay:10.37,2013-06-11 16:20:00,
2013-06-11 11:25:00,75.9,61.9,29.77,NW,313,1.0,3.0,62,0.00,CLR,,0.00,WeatherDisplay:10.37,2013-06-11 16:25:00,
2013-06-11 11:30:00,76.1,63.5,29.77,NW,319,0.0,1.0,65,0.00,CLR,,0.00,WeatherDisplay:10.37,2013-06-11 16:30:00,
2013-06-11 11:35:00,76.5,63.4,29.76,NNW,334,0.0,3.0,64,0.00,CLR,,0.00,WeatherDisplay:10.37,2013-06-11 16:35:00,
2013-06-11 11:40:00,76.8,64.2,29.76,NW,325,0.0,3.0,65,0.00,CLR,,0.00,WeatherDisplay:10.37,2013-06-11 16:40:00,
2013-06-11 11:45:00,77.8,66.0,29.76,NW,321,0.0,3.0,67,0.00,CLR,,0.00,WeatherDisplay:10.37,2013-06-11 16:45:00,
2013-06-11 11:50:00,78.6,65.0,29.76,South,184,1.0,5.0,63,0.00,CLR,,0.00,WeatherDisplay:10.37,2013-06-11 16:50:00,
2013-06-11 11:55:00,78.8,65.6,29.76,SSE,165,1.0,4.0,64,0.00,CLR,,0.00,WeatherDisplay:10.37,2013-06-11 16:55:00,
2013-06-11 12:00:00,78.7,63.2,29.76,South,170,0.0,1.0,59,0.00,CLR,,0.00,WeatherDisplay:10.37,2013-06-11 17:00:00,
2013-06-11 12:05:00,77.8,63.8,29.76,South,171,0.0,1.0,62,0.00,CLR,,0.00,WeatherDisplay:10.37,2013-06-11 17:05:00,
2013-06-11 12:10:00,77.8,64.2,29.76,South,171,0.0,1.0,63,0.00,CLR,,0.00,WeatherDisplay:10.37,2013-06-11 17:10:00,
2013-06-11 12:15:00,78.1,64.5,29.76,South,171,0.0,3.0,63,0.00,CLR,,0.00,WeatherDisplay:10.37,2013-06-11 17:15:00,
2013-06-11 12:20:00,78.1,64.5,29.76,South,172,0.0,1.0,63,0.00,CLR,,0.00,WeatherDisplay:10.37,2013-06-11 17:20:00,
2013-06-11 12:25:00,77.9,63.8,29.76,South,171,0.0,0.0,62,0.00,CLR,,0.00,WeatherDisplay:10.37,2013-06-11 17:25:00,
2013-06-11 12:30:00,77.9,65.6,29.76,South,172,0.0,0.0,66,0.00,CLR,,0.00,WeatherDisplay:10.37,2013-06-11 17:30:00,
2013-06-11 12:35:00,78.1,65.8,29.75,South,172,0.0,0.0,66,0.00,CLR,,0.00,WeatherDisplay:10.37,2013-06-11 17:35:00,
2013-06-11 12:45:00,78.3,65.1,29.75,South,172,0.0,2.0,64,0.00,CLR,,0.00,WeatherDisplay:10.37,2013-06-11 17:45:00,
2013-06-11 12:50:00,78.4,65.2,29.74,South,172,0.0,1.0,64,0.00,CLR,,0.00,WeatherDisplay:10.37,2013-06-11 17:50:00,
2013-06-11 12:55:00,79.0,65.8,29.74,South,172,0.0,1.0,64,0.00,CLR,,0.00,WeatherDisplay:10.37,2013-06-11 17:55:00,
2013-06-11 13:00:00,79.8,66.1,29.74,South,172,0.0,1.0,63,0.00,CLR,,0.00,WeatherDisplay:10.37,2013-06-11 18:00:00,
2013-06-11 13:05:00,80.4,66.2,29.71,South,172,0.0,0.0,62,0.00,CLR,,0.00,WeatherDisplay:10.37,2013-06-11 18:05:00,
2013-06-11 13:10:00,80.5,64.9,29.71,South,172,0.0,1.0,59,0.00,CLR,,0.00,WeatherDisplay:10.37,2013-06-11 18:10:00,
2013-06-11 13:15:00,80.3,64.2,29.71,South,172,0.0,1.0,58,0.00,CLR,,0.00,WeatherDisplay:10.37,2013-06-11 18:15:00,
2013-06-11 13:20:00,80.3,65.6,29.75,South,172,0.0,1.0,61,0.00,CLR,,0.00,WeatherDisplay:10.37,2013-06-11 18:20:00,
2013-06-11 13:25:00,80.3,64.2,29.75,South,172,0.0,1.0,58,0.00,CLR,,0.00,WeatherDisplay:10.37,2013-06-11 18:25:00,
2013-06-11 13:30:00,80.3,64.2,29.75,South,182,0.0,5.0,58,0.00,CLR,,0.00,WeatherDisplay:10.37,2013-06-11 18:30:00,
2013-06-11 13:40:00,80.9,64.7,29.76,SSW,210,0.0,3.0,58,0.00,CLR,,0.00,WeatherDisplay:10.37,2013-06-11 18:40:00,
2013-06-11 13:45:00,81.4,66.2,29.76,SSW,207,0.0,4.0,60,0.00,CLR,,0.00,WeatherDisplay:10.37,2013-06-11 18:45:00,
2013-06-11 13:50:00,81.8,66.6,29.75,SSW,207,1.0,3.0,60,0.00,CLR,,0.00,WeatherDisplay:10.37,2013-06-11 18:50:00,
2013-06-11 13:55:00,81.9,63.7,29.75,SSW,209,0.0,4.0,54,0.00,CLR,,0.00,WeatherDisplay:10.37,2013-06-11 18:55:00,
2013-06-11 14:00:00,81.3,64.1,29.75,SW,216,0.0,4.0,56,0.00,CLR,,0.00,WeatherDisplay:10.37,2013-06-11 19:00:00,
2013-06-11 14:05:00,80.9,64.7,29.75,SW,220,0.0,4.0,58,0.00,CLR,,0.00,WeatherDisplay:10.37,2013-06-11 19:05:00,
2013-06-11 14:10:00,80.3,65.6,29.75,SW,232,0.0,1.0,61,0.00,CLR,,0.00,WeatherDisplay:10.37,2013-06-11 19:10:00,
2013-06-11 14:15:00,79.9,65.2,29.75,SW,234,0.0,1.0,61,0.00,CLR,,0.00,WeatherDisplay:10.37,2013-06-11 19:15:00,
2013-06-11 14:20:00,79.6,66.4,29.74,SW,234,0.0,0.0,64,0.00,CLR,,0.00,WeatherDisplay:10.37,2013-06-11 19:20:00,
2013-06-11 14:25:00,79.4,65.7,29.74,SW,234,0.0,1.0,63,0.00,CLR,,0.00,WeatherDisplay:10.37,2013-06-11 19:25:00,
2013-06-11 14:30:00,78.8,64.7,29.74,SW,227,0.0,5.0,62,0.00,CLR,,0.00,WeatherDisplay:10.37,2013-06-11 19:30:00,
2013-06-11 14:40:00,78.6,64.9,29.74,SW,217,0.0,5.0,63,0.00,CLR,,0.00,WeatherDisplay:10.37,2013-06-11 19:40:00,
2013-06-11 14:45:00,78.5,64.9,29.74,SSW,212,0.0,2.0,63,0.00,CLR,,0.00,WeatherDisplay:10.37,2013-06-11 19:45:00,
2013-06-11 14:50:00,78.2,64.5,29.75,SSW,211,0.0,0.0,63,0.00,CLR,,0.00,WeatherDisplay:10.37,2013-06-11 19:50:00,
2013-06-11 14:55:00,77.9,64.3,29.75,SSW,211,0.0,0.0,63,0.00,CLR,,0.00,WeatherDisplay:10.37,2013-06-11 19:55:00,
2013-06-11 15:00:00,77.9,66.9,29.75,SSW,211,0.0,1.0,69,0.00,CLR,,0.00,WeatherDisplay:10.37,2013-06-11 20:00:00,
2013-06-11 15:05:00,77.9,65.6,29.72,SSW,211,0.0,0.0,66,0.00,CLR,,0.00,WeatherDisplay:10.37,2013-06-11 20:05:00,
2013-06-11 15:10:00,77.7,66.7,29.72,SSW,211,0.0,1.0,69,0.00,CLR,,0.00,WeatherDisplay:10.37,2013-06-11 20:10:00,
2013-06-11 15:15:00,77.7,68.0,29.72,SSW,211,0.0,1.0,72,0.00,CLR,,0.00,WeatherDisplay:10.37,2013-06-11 20:15:00,
2013-06-11 15:20:00,77.9,68.1,29.69,SSW,211,0.0,0.0,72,0.00,CLR,,0.00,WeatherDisplay:10.37,2013-06-11 20:20:00,
2013-06-11 15:25:00,78.3,67.7,29.69,SSW,211,0.0,0.0,70,0.00,CLR,,0.00,WeatherDisplay:10.37,2013-06-11 20:25:00,
2013-06-11 15:35:00,79.1,65.4,29.68,SSW,199,0.0,4.0,63,0.00,CLR,,0.00,WeatherDisplay:10.37,2013-06-11 20:35:00,
2013-06-11 15:40:00,79.4,66.2,29.68,ESE,123,0.0,2.0,64,0.00,CLR,,0.00,WeatherDisplay:10.37,2013-06-11 20:40:00,
2013-06-11 15:45:00,79.8,66.1,29.68,ESE,113,0.0,1.0,63,0.00,CLR,,0.00,WeatherDisplay:10.37,2013-06-11 20:45:00,
2013-06-11 15:50:00,80.1,64.5,29.70,ESE,121,0.0,1.0,59,0.00,CLR,,0.00,WeatherDisplay:10.37,2013-06-11 20:50:00,
2013-06-11 15:55:00,80.3,65.1,29.70,SE,130,0.0,0.0,60,0.00,CLR,,0.00,WeatherDisplay:10.37,2013-06-11 20:55:00,
2013-06-11 16:00:00,80.5,65.8,29.70,SE,130,0.0,0.0,61,0.00,CLR,,0.00,WeatherDisplay:10.37,2013-06-11 21:00:00,
2013-06-11 16:05:00,80.7,65.0,29.70,SE,145,1.0,4.0,59,0.00,CLR,,0.00,WeatherDisplay:10.37,2013-06-11 21:05:00,
2013-06-11 16:10:00,80.9,64.7,29.70,South,191,0.0,2.0,58,0.00,CLR,,0.00,WeatherDisplay:10.37,2013-06-11 21:10:00,
2013-06-11 16:20:00,80.9,64.7,29.70,SW,230,0.0,4.0,58,0.00,CLR,,0.00,WeatherDisplay:10.37,2013-06-11 21:20:00,
2013-06-11 16:25:00,79.9,64.3,29.70,SW,230,0.0,1.0,59,0.00,CLR,,0.00,WeatherDisplay:10.37,2013-06-11 21:25:00,
2013-06-11 16:30:00,79.9,65.2,29.70,SW,224,0.0,4.0,61,0.00,CLR,,0.00,WeatherDisplay:10.37,2013-06-11 21:30:00,
2013-06-11 16:35:00,79.9,64.8,29.71,SW,230,0.0,2.0,60,0.00,CLR,,0.00,WeatherDisplay:10.37,2013-06-11 21:35:00,
2013-06-11 16:40:00,79.8,65.2,29.71,WNW,296,0.0,3.0,61,0.00,CLR,,0.00,WeatherDisplay:10.37,2013-06-11 21:40:00,
2013-06-11 16:45:00,79.9,65.2,29.71,NNE,21,0.0,1.0,61,0.00,CLR,,0.00,WeatherDisplay:10.37,2013-06-11 21:45:00,
2013-06-11 16:50:00,80.1,65.4,29.71,NNE,27,0.0,1.0,61,0.00,CLR,,0.00,WeatherDisplay:10.37,2013-06-11 21:50:00,
2013-06-11 16:55:00,79.9,64.8,29.71,NNE,19,0.0,3.0,60,0.00,CLR,,0.00,WeatherDisplay:10.37,2013-06-11 21:55:00,
2013-06-11 17:00:00,79.9,65.2,29.71,NNE,16,0.0,3.0,61,0.00,CLR,,0.00,WeatherDisplay:10.37,2013-06-11 22:00:00,
2013-06-11 17:05:00,80.1,65.9,29.71,North,354,1.0,3.0,62,0.00,CLR,,0.00,WeatherDisplay:10.37,2013-06-11 22:05:00,
2013-06-11 17:10:00,80.1,65.5,29.71,NNW,341,0.0,1.0,61,0.00,CLR,,0.00,WeatherDisplay:10.37,2013-06-11 22:10:00,
2013-06-11 17:15:00,80.1,64.5,29.71,NNW,340,0.0,1.0,59,0.00,CLR,,0.00,WeatherDisplay:10.37,2013-06-11 22:15:00,
2013-06-11 17:20:00,79.9,65.2,29.70,North,351,0.0,2.0,61,0.00,CLR,,0.00,WeatherDisplay:10.37,2013-06-11 22:20:00,
2013-06-11 17:25:00,79.6,65.0,29.70,North,358,0.0,4.0,61,0.00,CLR,,0.00,WeatherDisplay:10.37,2013-06-11 22:25:00,
2013-06-11 17:30:00,79.6,65.0,29.70,North,5,0.0,0.0,61,0.00,CLR,,0.00,WeatherDisplay:10.37,2013-06-11 22:30:00,
2013-06-11 17:35:00,79.6,65.4,29.69,North,5,0.0,0.0,62,0.00,CLR,,0.00,WeatherDisplay:10.37,2013-06-11 22:35:00,
2013-06-11 17:40:00,79.6,65.4,29.69,North,5,0.0,1.0,62,0.00,CLR,,0.00,WeatherDisplay:10.37,2013-06-11 22:40:00,
2013-06-11 17:45:00,79.4,66.2,29.69,North,5,0.0,0.0,64,0.00,CLR,,0.00,WeatherDisplay:10.37,2013-06-11 22:45:00,
2013-06-11 17:50:00,79.4,65.7,29.69,North,5,0.0,1.0,63,0.00,CLR,,0.00,WeatherDisplay:10.37,2013-06-11 22:50:00,
2013-06-11 17:55:00,79.6,65.9,29.69,North,5,0.0,0.0,63,0.00,CLR,,0.00,WeatherDisplay:10.37,2013-06-11 22:55:00,
2013-06-11 18:00:00,79.8,65.2,29.69,North,5,0.0,0.0,61,0.00,CLR,,0.00,WeatherDisplay:10.37,2013-06-11 23:00:00,
2013-06-11 18:05:00,79.8,65.6,29.71,North,5,1.0,2.0,62,0.00,CLR,,0.00,WeatherDisplay:10.37,2013-06-11 23:05:00,
2013-06-11 18:10:00,79.6,65.9,29.71,North,5,0.0,3.0,63,0.00,CLR,,0.00,WeatherDisplay:10.37,2013-06-11 23:10:00,
2013-06-11 18:15:00,79.4,65.7,29.71,North,6,0.0,0.0,63,0.00,CLR,,0.00,WeatherDisplay:10.37,2013-06-11 23:15:00,
2013-06-11 18:20:00,79.2,66.0,29.70,North,5,0.0,0.0,64,0.00,CLR,,0.00,WeatherDisplay:10.37,2013-06-11 23:20:00,
2013-06-11 18:25:00,79.2,66.9,29.70,North,5,0.0,0.0,66,0.00,CLR,,0.00,WeatherDisplay:10.37,2013-06-11 23:25:00,
2013-06-11 18:30:00,78.8,67.3,29.70,North,5,0.0,0.0,68,0.00,CLR,,0.00,WeatherDisplay:10.37,2013-06-11 23:30:00,
2013-06-11 18:35:00,78.6,66.3,29.70,North,5,0.0,0.0,66,0.00,CLR,,0.00,WeatherDisplay:10.37,2013-06-11 23:35:00,
2013-06-11 18:40:00,78.5,66.6,29.70,North,5,0.0,0.0,67,0.00,CLR,,0.00,WeatherDisplay:10.37,2013-06-11 23:40:00,
2013-06-11 18:45:00,78.3,67.3,29.70,NNE,20,2.0,3.0,69,0.00,CLR,,0.00,WeatherDisplay:10.37,2013-06-11 23:45:00,
2013-06-11 18:50:00,78.1,67.1,29.68,NNE,26,5.0,7.0,69,0.00,CLR,,0.00,WeatherDisplay:10.37,2013-06-11 23:50:00,
2013-06-11 18:55:00,77.9,66.1,29.68,North,2,0.0,4.0,67,0.00,CLR,,0.00,WeatherDisplay:10.37,2013-06-11 23:55:00,
2013-06-11 19:00:00,77.9,65.6,29.68,NNW,348,0.0,2.0,66,0.00,CLR,,0.00,WeatherDisplay:10.37,2013-06-12 00:00:00,
2013-06-11 19:05:00,77.9,67.3,29.71,NNW,348,0.0,0.0,70,0.00,CLR,,0.00,WeatherDisplay:10.37,2013-06-12 00:05:00,
2013-06-11 19:10:00,77.7,66.3,29.71,NNW,348,0.0,2.0,68,0.00,CLR,,0.00,WeatherDisplay:10.37,2013-06-12 00:10:00,
2013-06-11 19:15:00,77.6,66.2,29.71,NNW,348,0.0,1.0,68,0.00,CLR,,0.00,WeatherDisplay:10.37,2013-06-12 00:15:00,
2013-06-11 19:20:00,77.3,65.9,29.73,North,351,1.0,5.0,68,0.00,CLR,,0.00,WeatherDisplay:10.37,2013-06-12 00:20:00,
2013-06-11 19:25:00,76.9,66.0,29.73,North,352,3.0,6.0,69,0.00,CLR,,0.00,WeatherDisplay:10.37,2013-06-12 00:25:00,
2013-06-11 19:30:00,76.8,65.9,29.73,North,351,0.0,4.0,69,0.00,CLR,,0.00,WeatherDisplay:10.37,2013-06-12 00:30:00,
2013-06-11 19:35:00,76.8,66.3,29.71,North,351,0.0,1.0,70,0.00,CLR,,0.00,WeatherDisplay:10.37,2013-06-12 00:35:00,
2013-06-11 19:40:00,76.7,66.6,29.71,North,350,0.0,1.0,71,0.00,CLR,,0.00,WeatherDisplay:10.37,2013-06-12 00:40:00,
2013-06-11 19:45:00,76.1,66.4,29.71,North,351,1.0,4.0,72,0.00,CLR,,0.00,WeatherDisplay:10.37,2013-06-12 00:45:00,
2013-06-11 19:50:00,75.8,66.1,29.71,North,351,0.0,1.0,72,0.00,CLR,,0.00,WeatherDisplay:10.37,2013-06-12 00:50:00,
2013-06-11 19:55:00,75.8,66.5,29.71,North,351,0.0,4.0,73,0.00,CLR,,0.00,WeatherDisplay:10.37,2013-06-12 00:55:00,
2013-06-11 20:00:00,75.6,66.7,29.71,North,351,0.0,1.0,74,0.00,CLR,,0.00,WeatherDisplay:10.37,2013-06-12 01:00:00,
2013-06-11 20:05:00,75.4,66.9,29.71,North,352,0.0,1.0,75,0.00,CLR,,0.00,WeatherDisplay:10.37,2013-06-12 01:05:00,
2013-06-11 20:10:00,75.0,66.6,29.71,NNE,12,3.0,4.0,75,0.00,CLR,,0.00,WeatherDisplay:10.37,2013-06-12 01:10:00,
2013-06-11 20:15:00,74.6,66.9,29.71,NNE,15,0.0,4.0,77,0.00,CLR,,0.00,WeatherDisplay:10.37,2013-06-12 01:15:00,
2013-06-11 20:20:00,74.4,66.3,29.73,NNE,13,0.0,1.0,76,0.00,CLR,,0.00,WeatherDisplay:10.37,2013-06-12 01:20:00,
2013-06-11 20:25:00,74.4,67.1,29.73,NNE,13,0.0,0.0,78,0.00,CLR,,0.00,WeatherDisplay:10.37,2013-06-12 01:25:00,
2013-06-11 20:30:00,74.2,66.9,29.73,NNE,13,0.0,0.0,78,0.00,CLR,,0.00,WeatherDisplay:10.37,2013-06-12 01:30:00,
2013-06-11 20:35:00,74.0,67.1,29.71,NNE,13,0.0,0.0,79,0.00,CLR,,0.00,WeatherDisplay:10.37,2013-06-12 01:35:00,
2013-06-11 20:40:00,73.7,66.8,29.71,NNE,13,0.0,0.0,79,0.00,CLR,,0.00,WeatherDisplay:10.37,2013-06-12 01:40:00,
2013-06-11 20:45:00,73.3,67.5,29.71,NNE,13,0.0,0.0,82,0.00,CLR,,0.00,WeatherDisplay:10.37,2013-06-12 01:45:00,
2013-06-11 20:50:00,73.2,67.3,29.71,NNE,13,0.0,1.0,82,0.00,CLR,,0.00,WeatherDisplay:10.37,2013-06-12 01:50:00,
2013-06-11 20:55:00,72.8,67.3,29.71,NNE,13,0.0,1.0,83,0.00,CLR,,0.00,WeatherDisplay:10.37,2013-06-12 01:55:00,
2013-06-11 21:00:00,72.5,67.0,29.71,ENE,69,0.0,4.0,83,0.00,CLR,,0.00,WeatherDisplay:10.37,2013-06-12 02:00:00,
2013-06-11 21:05:00,72.3,66.8,29.70,East,83,0.0,0.0,83,0.00,CLR,,0.00,WeatherDisplay:10.37,2013-06-12 02:05:00,
2013-06-11 21:10:00,72.1,67.0,29.70,East,83,0.0,0.0,84,0.00,CLR,,0.00,WeatherDisplay:10.37,2013-06-12 02:10:00,
2013-06-11 21:15:00,71.8,67.0,29.70,East,83,0.0,0.0,85,0.00,CLR,,0.00,WeatherDisplay:10.37,2013-06-12 02:15:00,
2013-06-11 21:20:00,71.6,66.8,29.72,East,83,0.0,0.0,85,0.00,CLR,,0.00,WeatherDisplay:10.37,2013-06-12 02:20:00,
2013-06-11 21:25:00,71.3,67.3,29.72,East,83,0.0,0.0,87,0.00,CLR,,0.00,WeatherDisplay:10.37,2013-06-12 02:25:00,
2013-06-11 21:30:00,71.1,66.7,29.72,East,83,0.0,0.0,86,0.00,CLR,,0.00,WeatherDisplay:10.37,2013-06-12 02:30:00,
2013-06-11 21:35:00,71.0,67.0,29.73,East,83,0.0,0.0,87,0.00,CLR,,0.00,WeatherDisplay:10.37,2013-06-12 02:35:00,
2013-06-11 21:40:00,70.9,66.8,29.73,East,83,0.0,1.0,87,0.00,CLR,,0.00,WeatherDisplay:10.37,2013-06-12 02:40:00,
2013-06-11 21:45:00,70.8,66.7,29.73,East,83,0.0,0.0,87,0.00,CLR,,0.00,WeatherDisplay:10.37,2013-06-12 02:45:00,
2013-06-11 21:50:00,70.6,66.9,29.74,East,83,0.0,0.0,88,0.00,CLR,,0.00,WeatherDisplay:10.37,2013-06-12 02:50:00,
2013-06-11 21:55:00,70.5,66.8,29.74,East,83,0.0,0.0,88,0.00,CLR,,0.00,WeatherDisplay:10.37,2013-06-12 02:55:00,
2013-06-11 22:00:00,70.4,66.7,29.74,East,83,0.0,1.0,88,0.00,CLR,,0.00,WeatherDisplay:10.37,2013-06-12 03:00:00,
2013-06-11 22:05:00,70.4,66.7,29.75,East,83,0.0,1.0,88,0.00,CLR,,0.00,WeatherDisplay:10.37,2013-06-12 03:05:00,
2013-06-11 22:10:00,70.4,66.7,29.75,East,83,0.0,3.0,88,0.00,CLR,,0.00,WeatherDisplay:10.37,2013-06-12 03:10:00,
2013-06-11 22:15:00,70.5,66.7,29.75,East,83,0.0,0.0,88,0.00,CLR,,0.00,WeatherDisplay:10.37,2013-06-12 03:15:00,
2013-06-11 22:20:00,70.8,67.1,29.75,East,83,0.0,2.0,88,0.00,CLR,,0.00,WeatherDisplay:10.37,2013-06-12 03:20:00,
2013-06-11 22:25:00,70.9,66.8,29.75,East,83,0.0,0.0,87,0.00,CLR,,0.00,WeatherDisplay:10.37,2013-06-12 03:25:00,
2013-06-11 22:30:00,70.9,67.2,29.75,East,83,0.0,1.0,88,0.00,CLR,,0.00,WeatherDisplay:10.37,2013-06-12 03:30:00,
2013-06-11 22:35:00,70.9,67.2,29.72,East,83,0.0,0.0,88,0.00,CLR,,0.00,WeatherDisplay:10.37,2013-06-12 03:35:00,
2013-06-11 22:40:00,70.9,67.8,29.72,East,83,0.0,0.0,90,0.00,CLR,,0.00,WeatherDisplay:10.37,2013-06-12 03:40:00,
2013-06-11 22:45:00,70.7,67.6,29.72,East,83,0.0,1.0,90,0.00,CLR,,0.00,WeatherDisplay:10.37,2013-06-12 03:45:00,
2013-06-11 22:50:00,70.4,67.3,29.72,East,83,0.0,1.0,90,0.00,CLR,,0.00,WeatherDisplay:10.37,2013-06-12 03:50:00,
2013-06-11 22:55:00,70.3,67.2,29.72,East,83,0.0,3.0,90,0.00,CLR,,0.00,WeatherDisplay:10.37,2013-06-12 03:55:00,
2013-06-11 23:00:00,70.1,67.0,29.72,East,83,0.0,1.0,90,0.00,CLR,,0.00,WeatherDisplay:10.37,2013-06-12 04:00:00,
2013-06-11 23:05:00,70.1,67.0,29.72,East,83,0.0,0.0,90,0.00,CLR,,0.00,WeatherDisplay:10.37,2013-06-12 04:05:00,
2013-06-11 23:10:00,70.1,66.7,29.72,East,83,0.0,2.0,89,0.00,CLR,,0.00,WeatherDisplay:10.37,2013-06-12 04:10:00,
2013-06-11 23:15:00,69.9,66.5,29.72,East,83,1.0,3.0,89,0.00,CLR,,0.00,WeatherDisplay:10.37,2013-06-12 04:15:00,
2013-06-11 23:20:00,69.9,66.2,29.70,East,83,0.0,3.0,88,0.00,CLR,,0.00,WeatherDisplay:10.37,2013-06-12 04:20:00,
2013-06-11 23:25:00,69.8,66.1,29.70,East,83,0.0,0.0,88,0.00,CLR,,0.00,WeatherDisplay:10.37,2013-06-12 04:25:00,
2013-06-11 23:30:00,69.7,66.0,29.70,East,83,0.0,0.0,88,0.00,CLR,,0.00,WeatherDisplay:10.37,2013-06-12 04:30:00,
2013-06-11 23:35:00,69.6,66.2,29.71,East,83,0.0,1.0,89,0.00,CLR,,0.00,WeatherDisplay:10.37,2013-06-12 04:35:00,
2013-06-11 23:40:00,69.3,65.9,29.71,East,83,0.0,1.0,89,0.00,CLR,,0.00,WeatherDisplay:10.37,2013-06-12 04:40:00,
2013-06-11 23:45:00,69.3,65.9,29.71,East,83,1.0,3.0,89,0.00,CLR,,0.00,WeatherDisplay:10.37,2013-06-12 04:45:00,
2013-06-11 23:50:00,69.1,66.0,29.72,East,83,0.0,1.0,90,0.00,CLR,,0.00,WeatherDisplay:10.37,2013-06-12 04:50:00,
2013-06-11 23:55:00,68.9,65.8,29.72,East,83,0.0,0.0,90,0.00,CLR,,0.00,WeatherDisplay:10.37,2013-06-12 04:55:00,